Showing default

BEIDOU 3M10, 43582

Orbit data source: Space-Track

BEIDOU 3M10, 43582 is a payload satellite owned by CNSA (CN) in MEO that was launched on Sun, 29 Jul 2018 UTC via a CHANG ZHENG 3B/YZ-1 launch vehicle from the Xichang Space Center, China (XSC). Payloads include a variety of satellites, spacecraft, and rockets equipped with specific instruments for various scientific and technological missions. These include communications satellites like Starlink; space stations such as the ISS; scientific satellites like the Hubble; Earth observation satellites from companies like Planet Labs, Umbra, and HawkEye 360; GPS; miniature CubeSats for education and research; and military/defense satellites.

Loading next visibility...
BEIDOU 3M10 details
Identifier
43582, 2018-062B
Orbit
MEO
Last TLE update2 days ago
Origin
Flag of CNCNSA (CN / PRC)
ManufacturerCAST
MissionOperational Defense Navigation
Bus & MotorBD-3M, Unknown motor
Mass1,014 kg wet, ~850 kg dry
Launch date (UTC)
2018-07-29 (6 years ago)
Launch vehicle
CHANG ZHENG 3B/YZ-1
Launch site
Xichang Space Center, China (XSC)
Object type
Payload
Rocket body
Debris
Shape & HBRBox + 2 Pan, 10 m
Radar Cross Section8.984 m², Large (>1 m²)

Expand to show TLE details & history

TLE from 2 days ago
0 BEIDOU 3M10
1 43582U 18062B   24359.86832910  .00000110  00000-0  00000-0 0  9991
2 43582  54.1120 200.6326 0007487  43.0125 317.1112  1.86229925 43598
Epoch: 2024-12-24T20:50Z
Definitive object data (Epoch: 2024-12-24T20:50:23.634Z)
Latitude0.00001°
Longitude154.17238°
Altitude21,513.116 km
Speed3.782 km/s
True Right ascension13h 22m 33s
True Declination0° 00' 00"
Sunlit
Object was in daylight at TLE epoch
Visualization TLE readout
Latitude9.47525°
Longitude161.04913°
Altitude21,509.87 km
Speed3.782 km/s
Apparent Right ascension14h 19m 21s
Apparent Declination1° 13' 55"
Sunlit
Object is in daylight
Visualization observer readout
Local Sidereal Time11:16:35
Azimuth121.101° SE
Elevation33.327°
Doppler factor1
Orbital elements
Apogee altitude21,549.094 km
Perigee altitude21,507.307 km
Semi-major axis27,906.337 km
Eccentricity0.0007487
Inclination54.112°
RAAN200.6326°
Arg. of periapsis43.0125°
True anomaly317.05277°
Mean anomaly317.1112°
Eccentric anomaly317.08199°
Mean motion0.46557 °/min
BSTARUnknown
Orbital period773.24 mins
Loading maneuver chart data...
Loading historical data...
Loading historical data...
Loading historical data...
Loading historical data...
Loading historical data...
Loading historical data...
Loading historical data...
Other satellites on launch #62 in the year 2018 (2018-07-29 UTC)

BEIDOU 3M10 Visibility forecast

Observer location: undefined°, undefined

Span
Click to sort rows by Start time (UTC) header in descending order
Start Az.
Max El. time (UTC)
Max El. Az.
Max El.
End time (UTC)
End Az.
211 mins2024-12-26 11:55:09.332Z121.127° SE2024-12-26 13:07:09.332Z83.518° E35.712°2024-12-26 15:26:09.332Z44.059° NE
126 mins2024-12-27 03:55:09.332Z320.723° NNW2024-12-27 04:56:09.332Z299.481° NW16.245°2024-12-27 06:01:09.332Z274.663° WNW
|